Lexington Weather

Lexington, Massachusetts, USA

49°F
12/8/2022 2:38pm 
  • Lexington Conditions: Clear
  • Temperature: 48.7°F / 9.3°CColder 1.5°F than last hour.
  • Dew Point: 35.1°FDecreased 0.9°Fsince last hour.
  • Relative Humidity: 59%Increased 1.0% since last hour.
  • Wind: Wind from NNE NNE 3 mph, 10-min avg: 4 mph, gust: 10 mph
  • Barometer: 30.07 in Steady
  • Visibility: 10 miles
  • Rain Today: 0.00 in
  •   

Warning: Undefined variable $rc in /homepages/6/d276339138/htdocs/weather/20190804/ssi/nwsProduct.php on line 323

Warning: Undefined variable $rc in /homepages/6/d276339138/htdocs/weather/20190804/ssi/nwsProduct.php on line 325

Warning: Undefined variable $rc in /homepages/6/d276339138/htdocs/weather/20190804/ssi/nwsProduct.php on line 323

Warning: Undefined variable $rc in /homepages/6/d276339138/htdocs/weather/20190804/ssi/nwsProduct.php on line 325

Warning: Undefined variable $rc in /homepages/6/d276339138/htdocs/weather/20190804/ssi/nwsProduct.php on line 323

Warning: Undefined variable $rc in /homepages/6/d276339138/htdocs/weather/20190804/ssi/nwsProduct.php on line 325

Warning: Undefined variable $rc in /homepages/6/d276339138/htdocs/weather/20190804/ssi/nwsProduct.php on line 323

Warning: Undefined variable $rc in /homepages/6/d276339138/htdocs/weather/20190804/ssi/nwsProduct.php on line 325

Warning: Undefined variable $rc in /homepages/6/d276339138/htdocs/weather/20190804/ssi/nwsProduct.php on line 323

Warning: Undefined variable $rc in /homepages/6/d276339138/htdocs/weather/20190804/ssi/nwsProduct.php on line 325

Warning: Undefined variable $rc in /homepages/6/d276339138/htdocs/weather/20190804/ssi/nwsProduct.php on line 323

Warning: Undefined variable $rc in /homepages/6/d276339138/htdocs/weather/20190804/ssi/nwsProduct.php on line 325

Warning: Undefined variable $rc in /homepages/6/d276339138/htdocs/weather/20190804/ssi/nwsProduct.php on line 323

Warning: Undefined variable $rc in /homepages/6/d276339138/htdocs/weather/20190804/ssi/nwsProduct.php on line 325

Regional Weather Roundup
for Boston, MA

        
000
ASUS41 KBOX 081810
RWRBOX

REGIONAL WEATHER ROUNDUP
NATIONAL WEATHER SERVICE BOSTON/NORTON MA
100 PM EST THU DEC 08 2022

NOTE:  "FAIR" INDICATES FEW OR NO CLOUDS BELOW 12,000 FEET WITH NO 
SIGNIFICANT WEATHER AND/OR OBSTRUCTIONS TO VISIBILITY.

MAZALL-081900-
EASTERN MASSACHUSETTS
  
CITY           SKY/WX    TMP DP  RH WIND       PRES   REMARKS
BOSTON         MOSUNNY   52  32  46 NW16G24   30.11F                  
6HR MIN TEMP:  48; 6HR MAX TEMP:  52;                                

BEVERLY        SUNNY     50  31  48 NW17G25   30.10S                  
LAWRENCE       MOSUNNY   50  31  48 NW12G23   30.13F                  
BEDFORD        SUNNY     52  32  46 NW13G26   30.11F                  
NORWOOD        SUNNY     54  33  45 NW17G24   30.11F                  
MARSHFIELD       N/A     52  34  50 NW8G18    30.09F                  
PLYMOUTH       SUNNY     54  36  50 NW14G22   30.08F                  
TAUNTON          N/A    N/A N/A N/A MISG      30.10F                  
NEW BEDFORD    SUNNY     54  36  50 NW9G22    30.08F                  
$$

MAZALL-081900-
CAPE COD AND THE ISLANDS
  
CITY           SKY/WX    TMP DP  RH WIND       PRES   REMARKS
FALMOUTH       SUNNY     54  37  54 NW14G23   30.08F                  
HYANNIS        SUNNY     51  37  58 N17G25    30.06S                  
CHATHAM        SUNNY     52  36  54 NW13G24   30.08F                  
PROVINCETOWN   MOSUNNY   51  38  60 NW20      30.10F                  
NANTUCKET      SUNNY     53  40  61 N23G29    30.08R                  
MARTHAS VNYRD  SUNNY     55  38  52 NW16G23   30.08F                  
$$
 
MAZALL-081900-
CENTRAL AND WESTERN MASSACHUSETTS
  
CITY           SKY/WX    TMP DP  RH WIND       PRES   REMARKS
WORCESTER      SUNNY     48  32  53 NW23G31   30.10F                  
6HR MIN TEMP:  46; 6HR MAX TEMP:  49;                                

FITCHBURG      LGT RAIN  50  29  44 NW20G30   30.13F                  
ORANGE         PTSUNNY   48  32  53 NW17      30.16F                  
SPRINGFIELD    PTSUNNY   50  35  56 N10       30.14F                  
WESTFIELD      CLOUDY    48  32  53 N13       30.17F                  
NORTH ADAMS    CLOUDY    45  34  65 W6        30.19F                  
PITTSFIELD     CLOUDY    43  31  62 W10       30.17S                  
$$
 
RIZALL-081900-
RHODE ISLAND
  
CITY           SKY/WX    TMP DP  RH WIND       PRES   REMARKS
PROVIDENCE     PTSUNNY   53  37  54 NW17G26   30.11F                  
6HR MIN TEMP:  49; 6HR MAX TEMP:  53;                                

NEWPORT        MOSUNNY   51  37  58 NW15G23   30.09F                  
BLOCK ISLAND   MOSUNNY   52  38  58 N10G17    30.11F                  
SMITHFIELD     SUNNY     51  35  54 N16G23    30.10F                  
WESTERLY       MOSUNNY   54  34  46 NW10G23   30.10F                  
$$
 
CTZALL-081900-
CONNECTICUT
  
CITY           SKY/WX    TMP DP  RH WIND       PRES   REMARKS
BRADLEY INTL   PTSUNNY   54  34  46 N10G18    30.17F                  
6HR MIN TEMP:  45; 6HR MAX TEMP:  54;                                

HARTFORD       PTSUNNY   53  33  46 N14       30.18F                  
BRIDGEPORT     PTSUNNY   52  34  50 N18G25    30.17F                  
DANBURY        PTSUNNY   52  36  54 N8        30.19F                  
GROTON         MOSUNNY   54  35  48 N20G26    30.12F                  
NEW HAVEN      MOSUNNY   55  35  47 N13G24    30.17F                  
CHESTER        FAIR      52  36  54 N13G20    30.16S                  
MERIDEN        MOSUNNY   52  32  46 NW10G21   30.18F                  
WILLIMANTIC    SUNNY     51  32  48 NW12      30.15F                  
OXFORD         PTSUNNY   49  35  58 N15G24    30.18F                  
$$

MEZ002-015-021-024-NHZ003-005-008-011-012-014-VTZ005-008-081900-
NORTHERN NEW ENGLAND
  
CITY           SKY/WX    TMP DP  RH WIND       PRES   REMARKS
PORTLAND ME    MOSUNNY   47  32  56 N20       30.10R                  
6HR MIN TEMP:  40; 6HR MAX TEMP:  48;                                

BANGOR ME      CLOUDY    44  36  73 NW14G23   30.06R                  
CONCORD NH     PTSUNNY   44  31  60 N18G25    30.15S                  
MANCHESTER NH  PTSUNNY   50  30  46 NW20G26   30.13R                  
NASHUA NH      MOSUNNY   50  30  46 NW17G28   30.13S                  
PORTSMOUTH NH  MOSUNNY   47  31  52 NW17      30.10S                  
JAFFREY NH     CLOUDY    46  28  49 NW7       30.13F                  
KEENE NH       CLOUDY    47  28  47 NW13G18     N/A                   
BURLINGTON VT  PTSUNNY   39  28  64 N13       30.26R WCI  31          
MT. WASHINGTON FOG       16  14  93 NW29        N/A  VSB 0   WCI  -4  
$$

NYZ052-076-081900-
EASTERN NEW YORK
  
CITY           SKY/WX    TMP DP  RH WIND       PRES   REMARKS
ALBANY         PTSUNNY   48  35  60 W12       30.22F                  
6HR MIN TEMP:  42; 6HR MAX TEMP:  51;                                

NEW YORK CITY  PTSUNNY   53  34  48 NW9       30.20F                  
6HR MIN TEMP:  49; 6HR MAX TEMP:  53;                                

$$
 
ANZALL-081900-
MARINE OBSERVATIONS
  
STATION/POSITION TIME  TEMP    WIND        PRES    VSBY  WAVE
                       AIR SEA DIR/SP/G                  HT/PER
                 (UTC) (F)     (DEG/KT/KT) (MB)    (MI)  (FT/S)
BOSTON BUOY      1750      50  320/ 17/ 21 1019.5F         5/10
BUZZARDS BAY     1700   51     330/ 14/ 16 1019.8F
NANTUCKET SOUND  1750   50 49  340/ 16/ 19 1018.6F         2/ 3
MASS BAY-STELLWA 1604   48 50  320/ 17/ 21 1018.5F  1 7/8  5/11
ISLE OF SHOALS   1700   47     310/ 20/ 22 1018.6F
S OF BLOCK IS    1756      55                N/A           4/10
$$

......................KEY.........................
  SKY/WX - SKY CONDITION/PRESENT WEATHER
  TMP    - TEMPERATURE IN FAHRENHEIT
  DWPT   - DEWPOINT IN FAHRENHEIT
  RH     - RELATIVE HUMIDITY IN PERCENT
  WIND   - DIRECTION AND SPEED IN MPH
  PRES   - MEAN SEA LEVEL PRESSURE IN INCHES OF HG
  WCI    - WIND CHILL INDEX
  VSB    - VISIBILITY IN MILES
  HX     - HEAT INDEX
  TC     - TEMPERATURE IN CELSIUS
  VRB    - VARIABLE WIND DIRECTION
  N/A    - NOT AVAILABLE
  
      

Other recent Regional Weather Roundups

Thu Dec 8, 2:10pm

Thu Dec 8, 12:10pm

Thu Dec 8, 11:10am

Thu Dec 8, 10:10am

Thu Dec 8, 9:10am

Thu Dec 8, 8:10am

Thu Dec 8, 7:10am

Thu Dec 8, 6:10am

Thu Dec 8, 5:10am

Thu Dec 8, 4:10am

Thu Dec 8, 3:10am

Thu Dec 8, 2:10am

Thu Dec 8, 1:10am

Thu Dec 8, 12:10am

Wed Dec 7, 11:10pm

Wed Dec 7, 10:10pm

Wed Dec 7, 9:10pm

Wed Dec 7, 8:10pm

Wed Dec 7, 7:10pm

Wed Dec 7, 6:10pm

Wed Dec 7, 5:10pm

Wed Dec 7, 4:10pm

Wed Dec 7, 3:10pm

Wed Dec 7, 2:10pm

Wed Dec 7, 1:10pm

Wed Dec 7, 12:10pm

Wed Dec 7, 11:10am

Wed Dec 7, 10:10am

Wed Dec 7, 9:10am

Wed Dec 7, 8:10am

Wed Dec 7, 7:10am

Wed Dec 7, 6:10am

Wed Dec 7, 5:10am

Wed Dec 7, 4:10am

Wed Dec 7, 3:10am

Wed Dec 7, 2:10am

Wed Dec 7, 1:10am

Wed Dec 7, 12:10am

Tue Dec 6, 11:10pm

Tue Dec 6, 10:10pm

Tue Dec 6, 9:10pm

Tue Dec 6, 8:10pm

Tue Dec 6, 7:10pm

Tue Dec 6, 6:10pm

Tue Dec 6, 5:10pm

Tue Dec 6, 4:10pm

Tue Dec 6, 3:10pm

Tue Dec 6, 2:10pm

Tue Dec 6, 1:10pm

Tue Dec 6, 12:10pm

Tue Dec 6, 11:10am

Tue Dec 6, 10:10am

Tue Dec 6, 9:10am

Tue Dec 6, 8:10am

Tue Dec 6, 7:10am

Tue Dec 6, 6:10am

Tue Dec 6, 5:10am

Tue Dec 6, 4:10am

Tue Dec 6, 3:10am

Tue Dec 6, 2:10am

Tue Dec 6, 1:10am

Tue Dec 6, 12:10am

Mon Dec 5, 11:10pm

Mon Dec 5, 10:10pm

Mon Dec 5, 9:10pm

Mon Dec 5, 8:10pm

Mon Dec 5, 7:10pm

Mon Dec 5, 6:10pm

Mon Dec 5, 5:10pm

Mon Dec 5, 4:10pm

Mon Dec 5, 3:10pm

Mon Dec 5, 2:10pm

Mon Dec 5, 1:10pm

Mon Dec 5, 12:10pm

Mon Dec 5, 11:10am

Mon Dec 5, 10:10am

Mon Dec 5, 9:10am

Mon Dec 5, 8:10am

Mon Dec 5, 7:10am

Mon Dec 5, 6:10am

Mon Dec 5, 5:10am

Mon Dec 5, 4:10am

Mon Dec 5, 3:10am

Mon Dec 5, 2:10am

Mon Dec 5, 1:10am

Mon Dec 5, 12:10am

Sun Dec 4, 11:10pm

Sun Dec 4, 10:10pm

Sun Dec 4, 9:10pm

Sun Dec 4, 8:10pm

Sun Dec 4, 7:10pm

Sun Dec 4, 6:10pm

Sun Dec 4, 5:10pm

Sun Dec 4, 4:10pm

Sun Dec 4, 3:10pm

Sun Dec 4, 2:10pm

Sun Dec 4, 1:10pm

Sun Dec 4, 12:10pm

Sun Dec 4, 11:10am

Sun Dec 4, 10:10am

Sun Dec 4, 9:10am

Sun Dec 4, 8:10am

Sun Dec 4, 7:10am

Sun Dec 4, 6:10am

Sun Dec 4, 5:10am

Sun Dec 4, 4:10am

Sun Dec 4, 3:10am

Sun Dec 4, 2:10am

Sun Dec 4, 1:10am

Sun Dec 4, 12:10am

Sat Dec 3, 11:10pm

Sat Dec 3, 10:10pm

Sat Dec 3, 9:10pm

Sat Dec 3, 8:10pm

Sat Dec 3, 7:10pm

Sat Dec 3, 6:10pm

Sat Dec 3, 5:10pm

Sat Dec 3, 4:10pm

Sat Dec 3, 3:10pm

Sat Dec 3, 2:10pm

Sat Dec 3, 1:10pm

Sat Dec 3, 12:10pm

Sat Dec 3, 11:10am

Sat Dec 3, 10:10am

Sat Dec 3, 9:10am

Sat Dec 3, 8:10am

Sat Dec 3, 7:10am

Sat Dec 3, 6:10am

Sat Dec 3, 5:10am

Sat Dec 3, 4:10am

Sat Dec 3, 3:10am

Sat Dec 3, 2:10am

Sat Dec 3, 1:10am

Sat Dec 3, 12:10am

Fri Dec 2, 11:10pm

Fri Dec 2, 10:10pm

Fri Dec 2, 9:10pm

Fri Dec 2, 8:10pm

Fri Dec 2, 7:10pm

Fri Dec 2, 6:10pm

Fri Dec 2, 5:10pm

Fri Dec 2, 4:10pm

Fri Dec 2, 3:10pm

Fri Dec 2, 2:10pm

Fri Dec 2, 1:10pm

Fri Dec 2, 12:10pm

Fri Dec 2, 11:10am

Fri Dec 2, 10:10am

Fri Dec 2, 9:10am

Fri Dec 2, 8:10am

Fri Dec 2, 7:10am

Fri Dec 2, 6:10am

Fri Dec 2, 5:10am

Fri Dec 2, 4:10am

Fri Dec 2, 3:10am

Fri Dec 2, 2:10am

Fri Dec 2, 1:10am

Fri Dec 2, 12:10am

Thu Dec 1, 11:10pm

Thu Dec 1, 10:10pm

Thu Dec 1, 9:10pm

Thu Dec 1, 8:10pm

Thu Dec 1, 7:10pm

Thu Dec 1, 6:10pm

Thu Dec 1, 5:10pm

Thu Dec 1, 4:10pm

Thu Dec 1, 3:10pm

Meta data:

ID: 3c4f8c49-b735-44d9-9de0-f85fe343e3db
Link: https://api.weather.gov/products/3c4f8c49-b735-44d9-9de0-f85fe343e3db